Location: Adavinekkalam
(16.6301°N, 80.7229°E)
Time: 13:12:41
(UTC+00:00)

Cosmos 2184 Rocket - Pass Details

Date: 15 May 2026
Orbit: 958 x 1002 km, 82.9° (Epoch: 11 June)

Event Time Altitude Azimuth Distance (km) Brightness Sun altitude
Rises 22:01:54 0° 348° (NNW) 3,634 7.3 -27.6°
Reaches altitude 10° 22:04:26 10° 344° (NNW) 2,690 6.5 -27.1°
Enters shadow 22:10:05 55° 281° (W) 1,148 4.0 -25.9°
